Location: Cogollal
(10.0582°N, 67.8466°W)
Time: 11:24:29
(UTC+00:00)

Cosmos 1943 Rocket - Pass Details

Date: 14 April 2024
Orbit: 810 x 845 km, 71.0° (Epoch: 24 May)

Event Time Altitude Azimuth Distance (km) Brightness Sun altitude
Rises 09:53:50 0° 323° (NW) 3,392 5.1 -7.5°
Reaches altitude 10° 09:56:41 10° 310° (NW) 2,457 4.3 -6.8°
Maximum altitude 10:01:11 25° 257° (WSW) 1,639 3.1 -5.7°
Drops below altitude 10° 10:05:41 10° 203° (SSW) 2,449 4.3 -4.6°
Sets 10:08:32 0° 190° (S) 3,378 5.1 -3.9°
